Location: Unspecified
(0.0000°N, 0.0000°E)
Time: 17:50:51
(UTC+00:00)

FALCON 9 R/B - Visible Passes

Search period start: 23 July 2024 00:00
Search period end: 02 August 2024 00:00
Orbit: 479 x 52916 km, 21.8° (Epoch: 22 July)

Date Brightness Start Highest point End Pass type
(mag) Time Alt. Az. Time Alt. Az. Time Alt. Az.
23 Jul ? 21:18:48 10° ESE 02:52:43 53° SE 04:44:49 10° ESE visible
24 Jul ? 22:14:32 10° WNW 23:42:35 85° W 07:10:46 10° WSW visible
25 Jul ? 20:27:29 10° ESE 03:06:16 68° S 06:50:41 10° ESE visible
27 Jul ? 00:21:00 10° WNW 01:46:02 48° W 06:19:47 10° WSW visible
27 Jul ? 16:31:15 10° NNW 02:08:59 72° S 08:51:38 10° E daylight
29 Jul ? 02:58:53 10° W 03:46:07 15° W 04:57:55 10° W visible
29 Jul ? 18:28:35 10° NW 18:40:44 43° NE 10:50:25 10° ENE daylight
30 Jul ? 21:30:33 10° ESE 01:13:27 35° ESE 02:47:39 10° ESE visible
31 Jul ? 20:27:28 10° NW 20:59:59 73° NE 07:17:21 10° WSW visible
